Year,Month,Day,Hour,Minute,Value (Times are PST for temperature in C)
2007,09,23,00,00,6.50
2007,09,23,00,01,6.60
2007,09,23,00,02,6.60
2007,09,23,00,03,6.60
2007,09,23,00,04,6.70
2007,09,23,00,05,6.70
2007,09,23,00,06,6.70
2007,09,23,00,07,6.70
2007,09,23,00,08,6.80
2007,09,23,00,09,6.80
2007,09,23,00,10,6.80
2007,09,23,00,11,6.80
2007,09,23,00,12,6.80
2007,09,23,00,13,6.80
2007,09,23,00,14,6.80
2007,09,23,00,15,6.80
2007,09,23,00,16,6.90
2007,09,23,00,17,6.90
2007,09,23,00,18,6.90
2007,09,23,00,19,6.90
2007,09,23,00,20,6.90
2007,09,23,00,21,6.90
2007,09,23,00,22,6.90
2007,09,23,00,23,6.90
2007,09,23,00,24,6.90
2007,09,23,00,25,6.90
2007,09,23,00,26,6.90
2007,09,23,00,27,6.90
2007,09,23,00,28,6.90
2007,09,23,00,29,6.90
2007,09,23,00,30,6.90
2007,09,23,00,31,6.90
2007,09,23,00,32,6.90
2007,09,23,00,33,6.90
2007,09,23,00,34,6.90
2007,09,23,00,35,6.90
2007,09,23,00,36,6.90
2007,09,23,00,37,6.90
2007,09,23,00,38,6.90
2007,09,23,00,39,6.90
2007,09,23,00,40,6.90
2007,09,23,00,41,6.90
2007,09,23,00,42,6.90
2007,09,23,00,43,6.90
2007,09,23,00,44,6.90
2007,09,23,00,45,6.90
2007,09,23,00,46,6.90
2007,09,23,00,47,6.90
2007,09,23,00,48,6.90
2007,09,23,00,49,6.90
2007,09,23,00,50,6.90
2007,09,23,00,51,6.90
2007,09,23,00,52,6.90
2007,09,23,00,53,6.90
2007,09,23,00,54,6.80
2007,09,23,00,55,6.80
2007,09,23,00,56,6.80
2007,09,23,00,57,6.80
2007,09,23,00,58,6.80
2007,09,23,00,59,6.80
2007,09,23,01,00,6.80
2007,09,23,01,01,6.80
2007,09,23,01,02,6.80
2007,09,23,01,03,6.80
2007,09,23,01,04,6.80
2007,09,23,01,05,6.80
2007,09,23,01,06,6.70
2007,09,23,01,07,6.70
2007,09,23,01,08,6.70
2007,09,23,01,09,6.70
2007,09,23,01,10,6.70
2007,09,23,01,11,6.70
2007,09,23,01,12,6.70
2007,09,23,01,13,6.70
2007,09,23,01,14,6.70
2007,09,23,01,15,6.70
2007,09,23,01,16,6.70
2007,09,23,01,17,6.60
2007,09,23,01,18,6.60
2007,09,23,01,19,6.60
2007,09,23,01,20,6.60
2007,09,23,01,21,6.60
2007,09,23,01,22,6.60
2007,09,23,01,23,6.60
2007,09,23,01,24,6.50
2007,09,23,01,25,6.50
2007,09,23,01,26,6.50
2007,09,23,01,27,6.50
2007,09,23,01,28,6.40
2007,09,23,01,29,6.40
2007,09,23,01,30,6.40
2007,09,23,01,31,6.40
2007,09,23,01,32,6.40
2007,09,23,01,33,6.30
2007,09,23,01,34,6.30
2007,09,23,01,35,6.30
2007,09,23,01,36,6.30
2007,09,23,01,37,6.30
2007,09,23,01,38,6.30
2007,09,23,01,39,6.20
2007,09,23,01,40,6.20
2007,09,23,01,41,6.20
2007,09,23,01,42,6.20
2007,09,23,01,43,6.20
2007,09,23,01,44,6.20
2007,09,23,01,45,6.10
2007,09,23,01,46,6.10
2007,09,23,01,47,6.10
2007,09,23,01,48,6.10
2007,09,23,01,49,6.10
2007,09,23,01,50,6.10
2007,09,23,01,51,6.10
2007,09,23,01,52,6.10
2007,09,23,01,53,6.00
2007,09,23,01,54,6.00
2007,09,23,01,55,6.00
2007,09,23,01,56,6.00
2007,09,23,01,57,6.00
2007,09,23,01,58,6.00
2007,09,23,01,59,5.90
2007,09,23,02,00,5.90
2007,09,23,02,01,5.90
2007,09,23,02,02,5.90
2007,09,23,02,03,5.90
2007,09,23,02,04,5.90
2007,09,23,02,05,5.90
2007,09,23,02,06,5.90
2007,09,23,02,07,6.00
2007,09,23,02,08,5.90
2007,09,23,02,09,6.00
2007,09,23,02,10,6.00
2007,09,23,02,11,6.00
2007,09,23,02,12,6.10
2007,09,23,02,13,6.00
2007,09,23,02,14,6.10
2007,09,23,02,15,6.10
2007,09,23,02,16,6.10
2007,09,23,02,17,6.10
2007,09,23,02,18,6.10
2007,09,23,02,19,6.20
2007,09,23,02,20,6.20
2007,09,23,02,21,6.20
2007,09,23,02,22,6.20
2007,09,23,02,23,6.20
2007,09,23,02,24,6.30
2007,09,23,02,25,6.30
2007,09,23,02,26,6.30
2007,09,23,02,27,6.30
2007,09,23,02,28,6.40
2007,09,23,02,29,6.40
2007,09,23,02,30,6.40
2007,09,23,02,31,6.40
2007,09,23,02,32,6.50
2007,09,23,02,33,6.50
2007,09,23,02,34,6.50
2007,09,23,02,35,6.50
2007,09,23,02,36,6.50
2007,09,23,02,37,6.60
2007,09,23,02,38,6.60
2007,09,23,02,39,6.60
2007,09,23,02,40,6.60
2007,09,23,02,41,6.60
2007,09,23,02,42,6.60
2007,09,23,02,43,6.60
2007,09,23,02,44,6.60
2007,09,23,02,45,6.60
2007,09,23,02,46,6.60
2007,09,23,02,47,6.60
2007,09,23,02,48,6.60
2007,09,23,02,49,6.50
2007,09,23,02,50,6.50
2007,09,23,02,51,6.50
2007,09,23,02,52,6.50
2007,09,23,02,53,6.50
2007,09,23,02,54,6.40
2007,09,23,02,55,6.40
2007,09,23,02,56,6.40
2007,09,23,02,57,6.40
2007,09,23,02,58,6.40
2007,09,23,02,59,6.30
2007,09,23,03,00,6.30
2007,09,23,03,01,6.30
2007,09,23,03,02,6.30
2007,09,23,03,03,6.30
2007,09,23,03,04,6.30
2007,09,23,03,05,6.30
2007,09,23,03,06,6.20
2007,09,23,03,07,6.20
2007,09,23,03,08,6.20
2007,09,23,03,09,6.20
2007,09,23,03,10,6.20
2007,09,23,03,11,6.20
2007,09,23,03,12,6.10
2007,09,23,03,13,6.10
2007,09,23,03,14,6.10
2007,09,23,03,15,6.10
2007,09,23,03,16,6.10
2007,09,23,03,17,6.10
2007,09,23,03,18,6.00
2007,09,23,03,19,6.00
2007,09,23,03,20,6.00
2007,09,23,03,21,6.00
2007,09,23,03,22,5.90
2007,09,23,03,23,5.90
2007,09,23,03,24,5.90
2007,09,23,03,25,5.90
2007,09,23,03,26,5.90
2007,09,23,03,27,5.90
2007,09,23,03,28,5.90
2007,09,23,03,29,5.90
2007,09,23,03,30,5.80
2007,09,23,03,31,5.80
2007,09,23,03,32,5.80
2007,09,23,03,33,5.80
2007,09,23,03,34,5.80
2007,09,23,03,35,5.80
2007,09,23,03,36,5.70
2007,09,23,03,37,5.70
2007,09,23,03,38,5.70
2007,09,23,03,39,5.70
2007,09,23,03,40,5.70
2007,09,23,03,41,5.70
2007,09,23,03,42,5.60
2007,09,23,03,43,5.60
2007,09,23,03,44,5.60
2007,09,23,03,45,5.60
2007,09,23,03,46,5.60
2007,09,23,03,47,5.50
2007,09,23,03,48,5.50
2007,09,23,03,49,5.50
2007,09,23,03,50,5.50
2007,09,23,03,51,5.50
2007,09,23,03,52,5.40
2007,09,23,03,53,5.40
2007,09,23,03,54,5.40
2007,09,23,03,55,5.40
2007,09,23,03,56,5.40
2007,09,23,03,57,5.30
2007,09,23,03,58,5.30
2007,09,23,03,59,5.30
2007,09,23,04,00,5.30
2007,09,23,04,01,5.30
2007,09,23,04,02,5.30
2007,09,23,04,03,5.30
2007,09,23,04,04,5.20
2007,09,23,04,05,5.20
2007,09,23,04,06,5.20
2007,09,23,04,07,5.20
2007,09,23,04,08,5.20
2007,09,23,04,09,5.20
2007,09,23,04,10,5.10
2007,09,23,04,11,5.10
2007,09,23,04,12,5.10
2007,09,23,04,13,5.10
2007,09,23,04,14,5.10
2007,09,23,04,15,5.10
2007,09,23,04,16,5.00
2007,09,23,04,17,5.00
2007,09,23,04,18,5.00
2007,09,23,04,19,4.90
2007,09,23,04,20,4.90
2007,09,23,04,21,4.90
2007,09,23,04,22,4.90
2007,09,23,04,23,4.90
2007,09,23,04,24,4.90
2007,09,23,04,25,4.80
2007,09,23,04,26,4.80
2007,09,23,04,27,4.80
2007,09,23,04,28,4.80
2007,09,23,04,29,4.80
2007,09,23,04,30,4.80
2007,09,23,04,31,4.80
2007,09,23,04,32,4.80
2007,09,23,04,33,4.80
2007,09,23,04,34,4.80
2007,09,23,04,35,4.80
2007,09,23,04,36,4.70
2007,09,23,04,37,4.70
2007,09,23,04,38,4.70
2007,09,23,04,39,4.70
2007,09,23,04,40,4.70
2007,09,23,04,41,4.60
2007,09,23,04,42,4.60
2007,09,23,04,43,4.60
2007,09,23,04,44,4.60
2007,09,23,04,45,4.60
2007,09,23,04,46,4.60
2007,09,23,04,47,4.50
2007,09,23,04,48,4.50
2007,09,23,04,49,4.50
2007,09,23,04,50,4.50
2007,09,23,04,51,4.50
2007,09,23,04,52,4.50
2007,09,23,04,53,4.40
2007,09,23,04,54,4.40
2007,09,23,04,55,4.40
2007,09,23,04,56,4.40
2007,09,23,04,57,4.40
2007,09,23,04,58,4.40
2007,09,23,04,59,4.40
2007,09,23,05,00,4.40
2007,09,23,05,01,4.40
2007,09,23,05,02,4.30
2007,09,23,05,03,4.30
2007,09,23,05,04,4.30
2007,09,23,05,05,4.30
2007,09,23,05,06,4.30
2007,09,23,05,07,4.30
2007,09,23,05,08,4.30
2007,09,23,05,09,4.30
2007,09,23,05,10,4.30
2007,09,23,05,11,4.20
2007,09,23,05,12,4.20
2007,09,23,05,13,4.20
2007,09,23,05,14,4.20
2007,09,23,05,15,4.20
2007,09,23,05,16,4.20
2007,09,23,05,17,4.20
2007,09,23,05,18,4.20
2007,09,23,05,19,4.20
2007,09,23,05,20,4.10
2007,09,23,05,21,4.20
2007,09,23,05,22,4.20
2007,09,23,05,23,4.20
2007,09,23,05,24,4.20
2007,09,23,05,25,4.20
2007,09,23,05,26,4.20
2007,09,23,05,27,4.20
2007,09,23,05,28,4.20
2007,09,23,05,29,4.20
2007,09,23,05,30,4.20
2007,09,23,05,31,4.30
2007,09,23,05,32,4.30
2007,09,23,05,33,4.30
2007,09,23,05,34,4.30
2007,09,23,05,35,4.30
2007,09,23,05,36,4.30
2007,09,23,05,37,4.30
2007,09,23,05,38,4.30
2007,09,23,05,39,4.30
2007,09,23,05,40,4.30
2007,09,23,05,41,4.30
2007,09,23,05,42,4.30
2007,09,23,05,43,4.30
2007,09,23,05,44,4.30
2007,09,23,05,45,4.20
2007,09,23,05,46,4.20
2007,09,23,05,47,4.20
2007,09,23,05,48,4.20
2007,09,23,05,49,4.10
2007,09,23,05,50,4.10
2007,09,23,05,51,4.10
2007,09,23,05,52,4.10
2007,09,23,05,53,4.00
2007,09,23,05,54,4.00
2007,09,23,05,55,3.90
2007,09,23,05,56,3.90
2007,09,23,05,57,3.90
2007,09,23,05,58,3.90
2007,09,23,05,59,3.90
2007,09,23,06,00,3.90
2007,09,23,06,01,3.90
2007,09,23,06,02,3.80
2007,09,23,06,03,3.80
2007,09,23,06,04,3.80
2007,09,23,06,05,3.80
2007,09,23,06,06,3.80
2007,09,23,06,07,3.80
2007,09,23,06,08,3.80
2007,09,23,06,09,3.80
2007,09,23,06,10,3.80
2007,09,23,06,11,3.80
2007,09,23,06,12,3.80
2007,09,23,06,13,3.80
2007,09,23,06,14,3.70
2007,09,23,06,15,3.70
2007,09,23,06,16,3.70
2007,09,23,06,17,3.70
2007,09,23,06,18,3.70
2007,09,23,06,19,3.70
2007,09,23,06,20,3.70
2007,09,23,06,21,3.70
2007,09,23,06,22,3.70
2007,09,23,06,23,3.70
2007,09,23,06,24,3.70
2007,09,23,06,25,3.70
2007,09,23,06,26,3.70
2007,09,23,06,27,3.60
2007,09,23,06,28,3.60
2007,09,23,06,29,3.60
2007,09,23,06,30,3.60
2007,09,23,06,31,3.60
2007,09,23,06,32,3.60
2007,09,23,06,33,3.60
2007,09,23,06,34,3.60
2007,09,23,06,35,3.60
2007,09,23,06,36,3.60
2007,09,23,06,37,3.60
2007,09,23,06,38,3.60
2007,09,23,06,39,3.60
2007,09,23,06,40,3.60
2007,09,23,06,41,3.60
2007,09,23,06,42,3.50
2007,09,23,06,43,3.50
2007,09,23,06,44,3.50
2007,09,23,06,45,3.50
2007,09,23,06,46,3.50
2007,09,23,06,47,3.50
2007,09,23,06,48,3.50
2007,09,23,06,49,3.50
2007,09,23,06,50,3.50
2007,09,23,06,51,3.50
2007,09,23,06,52,3.50
2007,09,23,06,53,3.50
2007,09,23,06,54,3.50
2007,09,23,06,55,3.40
2007,09,23,06,56,3.40
2007,09,23,06,57,3.40
2007,09,23,06,58,3.40
2007,09,23,06,59,3.40
2007,09,23,07,00,3.40
2007,09,23,07,01,3.40
2007,09,23,07,02,3.40
2007,09,23,07,03,3.40
2007,09,23,07,04,3.40
2007,09,23,07,05,3.40
2007,09,23,07,06,3.40
2007,09,23,07,07,3.40
2007,09,23,07,08,3.40
2007,09,23,07,09,3.40
2007,09,23,07,10,3.40
2007,09,23,07,11,3.40
2007,09,23,07,12,3.40
2007,09,23,07,13,3.40
2007,09,23,07,14,3.40
2007,09,23,07,15,3.40
2007,09,23,07,16,3.40
2007,09,23,07,17,3.40
2007,09,23,07,18,3.40
2007,09,23,07,19,3.40
2007,09,23,07,20,3.40
2007,09,23,07,21,3.40
2007,09,23,07,22,3.40
2007,09,23,07,23,3.40
2007,09,23,07,24,3.40
2007,09,23,07,25,3.40
2007,09,23,07,26,3.40
2007,09,23,07,27,3.40
2007,09,23,07,28,3.40
2007,09,23,07,29,3.40
2007,09,23,07,30,3.30
2007,09,23,07,31,3.30
2007,09,23,07,32,3.30
2007,09,23,07,33,3.30
2007,09,23,07,34,3.30
2007,09,23,07,35,3.30
2007,09,23,07,36,3.30
2007,09,23,07,37,3.30
2007,09,23,07,38,3.30
2007,09,23,07,39,3.40
2007,09,23,07,40,3.40
2007,09,23,07,41,3.40
2007,09,23,07,42,3.40
2007,09,23,07,43,3.40
2007,09,23,07,44,3.40
2007,09,23,07,45,3.40
2007,09,23,07,46,3.40
2007,09,23,07,47,3.40
2007,09,23,07,48,3.40
2007,09,23,07,49,3.40
2007,09,23,07,50,3.40
2007,09,23,07,51,3.40
2007,09,23,07,52,3.50
2007,09,23,07,53,3.50
2007,09,23,07,54,3.50
2007,09,23,07,55,3.50
2007,09,23,07,56,3.50
2007,09,23,07,57,3.50
2007,09,23,07,58,3.50
2007,09,23,07,59,3.50
2007,09,23,08,00,3.60
2007,09,23,08,01,3.60
2007,09,23,08,02,3.60
2007,09,23,08,03,3.60
2007,09,23,08,04,3.60
2007,09,23,08,05,3.70
2007,09,23,08,06,3.70
2007,09,23,08,07,3.70
2007,09,23,08,08,3.70
2007,09,23,08,09,3.70
2007,09,23,08,10,3.80
2007,09,23,08,11,3.80
2007,09,23,08,12,3.80
2007,09,23,08,13,3.80
2007,09,23,08,14,3.80
2007,09,23,08,15,3.80
2007,09,23,08,16,3.90
2007,09,23,08,17,4.00
2007,09,23,08,18,4.00
2007,09,23,08,19,4.10
2007,09,23,08,20,4.10
2007,09,23,08,21,4.20
2007,09,23,08,22,4.20
2007,09,23,08,23,4.20
2007,09,23,08,24,4.30
2007,09,23,08,25,4.30
2007,09,23,08,26,4.40
2007,09,23,08,27,4.50
2007,09,23,08,28,4.60
2007,09,23,08,29,4.70
2007,09,23,08,30,4.70
2007,09,23,08,31,4.80
2007,09,23,08,32,4.90
2007,09,23,08,33,5.00
2007,09,23,08,34,5.10
2007,09,23,08,35,5.20
2007,09,23,08,36,5.40
2007,09,23,08,37,5.50
2007,09,23,08,38,5.70
2007,09,23,08,39,5.90
2007,09,23,08,40,6.00
2007,09,23,08,41,6.10
2007,09,23,08,42,6.20
2007,09,23,08,43,6.20
2007,09,23,08,44,6.30
2007,09,23,08,45,6.40
2007,09,23,08,46,6.40
2007,09,23,08,47,6.50
2007,09,23,08,48,6.60
2007,09,23,08,49,6.70
2007,09,23,08,50,6.80
2007,09,23,08,51,6.90
2007,09,23,08,52,7.00
2007,09,23,08,53,7.00
2007,09,23,08,54,7.10
2007,09,23,08,55,7.20
2007,09,23,08,56,7.20
2007,09,23,08,57,7.20
2007,09,23,08,58,7.30
2007,09,23,08,59,7.40
2007,09,23,09,00,7.50
2007,09,23,09,01,7.70
2007,09,23,09,02,7.80
2007,09,23,09,03,7.90
2007,09,23,09,04,8.00
2007,09,23,09,05,8.30
2007,09,23,09,06,8.40
2007,09,23,09,07,8.60
2007,09,23,09,08,8.70
2007,09,23,09,09,8.80
2007,09,23,09,10,8.90
2007,09,23,09,11,9.00
2007,09,23,09,12,9.10
2007,09,23,09,13,9.20
2007,09,23,09,14,9.30
2007,09,23,09,15,9.40
2007,09,23,09,16,9.60
2007,09,23,09,17,9.60
2007,09,23,09,18,9.70
2007,09,23,09,19,9.80
2007,09,23,09,20,9.80
2007,09,23,09,21,9.80
2007,09,23,09,22,9.90
2007,09,23,09,23,9.90
2007,09,23,09,24,10.00
2007,09,23,09,25,10.00
2007,09,23,09,26,10.10
2007,09,23,09,27,10.20
2007,09,23,09,28,10.20
2007,09,23,09,29,10.30
2007,09,23,09,30,10.30
2007,09,23,09,31,10.30
2007,09,23,09,32,10.40
2007,09,23,09,33,10.40
2007,09,23,09,34,10.40
2007,09,23,09,35,10.40
2007,09,23,09,36,10.50
2007,09,23,09,37,10.50
2007,09,23,09,38,10.50
2007,09,23,09,39,10.50
2007,09,23,09,40,10.50
2007,09,23,09,41,10.60
2007,09,23,09,42,10.60
2007,09,23,09,43,10.60
2007,09,23,09,44,10.70
2007,09,23,09,45,10.80
2007,09,23,09,46,10.90
2007,09,23,09,47,10.90
2007,09,23,09,48,10.90
2007,09,23,09,49,11.00
2007,09,23,09,50,11.00
2007,09,23,09,51,11.00
2007,09,23,09,52,11.10
2007,09,23,09,53,11.10
2007,09,23,09,54,11.10
2007,09,23,09,55,11.10
2007,09,23,09,56,11.10
2007,09,23,09,57,11.10
2007,09,23,09,58,11.20
2007,09,23,09,59,11.20
2007,09,23,10,00,11.20
2007,09,23,10,01,11.20
2007,09,23,10,02,11.20
2007,09,23,10,03,11.20
2007,09,23,10,04,11.20
2007,09,23,10,05,11.20
2007,09,23,10,06,11.30
2007,09,23,10,07,11.30
2007,09,23,10,08,11.30
2007,09,23,10,09,11.40
2007,09,23,10,10,11.40
2007,09,23,10,11,11.50
2007,09,23,10,12,11.50
2007,09,23,10,13,11.60
2007,09,23,10,14,11.60
2007,09,23,10,15,11.60
2007,09,23,10,16,11.70
2007,09,23,10,17,11.70
2007,09,23,10,18,11.80
2007,09,23,10,19,11.80
2007,09,23,10,20,11.80
2007,09,23,10,21,11.80
2007,09,23,10,22,11.80
2007,09,23,10,23,11.90
2007,09,23,10,24,11.90
2007,09,23,10,25,11.90
2007,09,23,10,26,12.00
2007,09,23,10,27,12.00
2007,09,23,10,28,12.10
2007,09,23,10,29,12.20
2007,09,23,10,30,12.20
2007,09,23,10,31,12.30
2007,09,23,10,32,12.30
2007,09,23,10,33,12.40
2007,09,23,10,34,12.50
2007,09,23,10,35,12.50
2007,09,23,10,36,12.60
2007,09,23,10,37,12.60
2007,09,23,10,38,12.70
2007,09,23,10,39,12.70
2007,09,23,10,40,12.80
2007,09,23,10,41,12.80
2007,09,23,10,42,12.80
2007,09,23,10,43,12.80
2007,09,23,10,44,12.80
2007,09,23,10,45,12.80
2007,09,23,10,46,12.80
2007,09,23,10,47,12.70
2007,09,23,10,48,12.70
2007,09,23,10,49,12.70
2007,09,23,10,50,12.60
2007,09,23,10,51,12.60
2007,09,23,10,52,12.60
2007,09,23,10,53,12.60
2007,09,23,10,54,12.60
2007,09,23,10,55,12.60
2007,09,23,10,56,12.60
2007,09,23,10,57,12.70
2007,09,23,10,58,12.70
2007,09,23,10,59,12.80
2007,09,23,11,00,12.80
2007,09,23,11,01,12.80
2007,09,23,11,02,12.80
2007,09,23,11,03,12.90
2007,09,23,11,04,12.90
2007,09,23,11,05,12.90
2007,09,23,11,06,12.90
2007,09,23,11,07,12.90
2007,09,23,11,08,12.90
2007,09,23,11,09,12.90
2007,09,23,11,10,12.90
2007,09,23,11,11,12.80
2007,09,23,11,12,12.70
2007,09,23,11,13,12.70
2007,09,23,11,14,12.60
2007,09,23,11,15,12.50
2007,09,23,11,16,12.30
2007,09,23,11,17,12.20
2007,09,23,11,18,12.20
2007,09,23,11,19,12.10
2007,09,23,11,20,12.00
2007,09,23,11,21,11.90
2007,09,23,11,22,11.90
2007,09,23,11,23,11.80
2007,09,23,11,24,11.80
2007,09,23,11,25,11.70
2007,09,23,11,26,11.70
2007,09,23,11,27,11.60
2007,09,23,11,28,11.60
2007,09,23,11,29,11.60
2007,09,23,11,30,11.60
2007,09,23,11,31,11.50
2007,09,23,11,32,11.50
2007,09,23,11,33,11.50
2007,09,23,11,34,11.50
2007,09,23,11,35,11.50
2007,09,23,11,36,11.50
2007,09,23,11,37,11.50
2007,09,23,11,38,11.60
2007,09,23,11,39,11.60
2007,09,23,11,40,11.60
2007,09,23,11,41,11.70
2007,09,23,11,42,11.80
2007,09,23,11,43,11.90
2007,09,23,11,44,12.00
2007,09,23,11,45,12.10
2007,09,23,11,46,12.30
2007,09,23,11,47,12.40
2007,09,23,11,48,12.60
2007,09,23,11,49,12.70
2007,09,23,11,50,12.80
2007,09,23,11,51,12.90
2007,09,23,11,52,12.90
2007,09,23,11,53,13.00
2007,09,23,11,54,13.10
2007,09,23,11,55,13.10
2007,09,23,11,56,13.20
2007,09,23,11,57,13.30
2007,09,23,11,58,13.30
2007,09,23,11,59,13.40
2007,09,23,12,00,13.40
2007,09,23,12,01,13.50
2007,09,23,12,02,13.60
2007,09,23,12,03,13.60
2007,09,23,12,04,13.70
2007,09,23,12,05,13.80
2007,09,23,12,06,13.90
2007,09,23,12,07,14.10
2007,09,23,12,08,14.20
2007,09,23,12,09,14.20
2007,09,23,12,10,14.20
2007,09,23,12,11,14.20
2007,09,23,12,12,14.30
2007,09,23,12,13,14.30
2007,09,23,12,14,14.20
2007,09,23,12,15,14.20
2007,09,23,12,16,14.20
2007,09,23,12,17,14.20
2007,09,23,12,18,14.20
2007,09,23,12,19,14.20
2007,09,23,12,20,14.20
2007,09,23,12,21,14.10
2007,09,23,12,22,14.10
2007,09,23,12,23,14.10
2007,09,23,12,24,14.10
2007,09,23,12,25,14.10
2007,09,23,12,26,14.10
2007,09,23,12,27,14.20
2007,09,23,12,28,14.30
2007,09,23,12,29,14.30
2007,09,23,12,30,14.40
2007,09,23,12,31,14.50
2007,09,23,12,32,14.50
2007,09,23,12,33,14.50
2007,09,23,12,34,14.40
2007,09,23,12,35,14.40
2007,09,23,12,36,14.40
2007,09,23,12,37,14.30
2007,09,23,12,38,14.30
2007,09,23,12,39,14.20
2007,09,23,12,40,14.20
2007,09,23,12,41,14.10
2007,09,23,12,42,14.10
2007,09,23,12,43,14.10
2007,09,23,12,44,14.10
2007,09,23,12,45,14.20
2007,09,23,12,46,14.10
2007,09,23,12,47,14.10
2007,09,23,12,48,14.00
2007,09,23,12,49,14.00
2007,09,23,12,50,13.90
2007,09,23,12,51,13.90
2007,09,23,12,52,14.00
2007,09,23,12,53,14.10
2007,09,23,12,54,14.10
2007,09,23,12,55,14.20
2007,09,23,12,56,14.20
2007,09,23,12,57,14.20
2007,09,23,12,58,14.10
2007,09,23,12,59,14.10
2007,09,23,13,00,14.10
2007,09,23,13,01,14.10
2007,09,23,13,02,14.10
2007,09,23,13,03,14.00
2007,09,23,13,04,14.00
2007,09,23,13,05,14.00
2007,09,23,13,06,14.00
2007,09,23,13,07,13.90
2007,09,23,13,08,13.90
2007,09,23,13,09,13.90
2007,09,23,13,10,13.90
2007,09,23,13,11,13.90
2007,09,23,13,12,13.90
2007,09,23,13,13,13.90
2007,09,23,13,14,13.90
2007,09,23,13,15,13.90
2007,09,23,13,16,13.90
2007,09,23,13,17,13.80
2007,09,23,13,18,13.90
2007,09,23,13,19,13.90
2007,09,23,13,20,13.90
2007,09,23,13,21,13.90
2007,09,23,13,22,13.80
2007,09,23,13,23,13.80
2007,09,23,13,24,13.80
2007,09,23,13,25,13.80
2007,09,23,13,26,13.70
2007,09,23,13,27,13.70
2007,09,23,13,28,13.70
2007,09,23,13,29,13.70
2007,09,23,13,30,13.70
2007,09,23,13,31,13.70
2007,09,23,13,32,13.70
2007,09,23,13,33,13.70
2007,09,23,13,34,13.70
2007,09,23,13,35,13.60
2007,09,23,13,36,13.60
2007,09,23,13,37,13.60
2007,09,23,13,38,13.60
2007,09,23,13,39,13.70
2007,09,23,13,40,13.70
2007,09,23,13,41,13.70
2007,09,23,13,42,13.70
2007,09,23,13,43,13.70
2007,09,23,13,44,13.70
2007,09,23,13,45,13.70
2007,09,23,13,46,13.70
2007,09,23,13,47,13.70
2007,09,23,13,48,13.80
2007,09,23,13,49,13.90
2007,09,23,13,50,14.00
2007,09,23,13,51,14.10
2007,09,23,13,52,14.20
2007,09,23,13,53,14.30
2007,09,23,13,54,14.40
2007,09,23,13,55,14.50
2007,09,23,13,56,14.60
2007,09,23,13,57,14.70
2007,09,23,13,58,14.70
2007,09,23,13,59,14.80
2007,09,23,14,00,14.80
2007,09,23,14,01,14.80
2007,09,23,14,02,14.80
2007,09,23,14,03,14.80
2007,09,23,14,04,14.90
2007,09,23,14,05,14.90
2007,09,23,14,06,14.90
2007,09,23,14,07,14.80
2007,09,23,14,08,14.80
2007,09,23,14,09,14.70
2007,09,23,14,10,14.70
2007,09,23,14,11,14.60
2007,09,23,14,12,14.60
2007,09,23,14,13,14.50
2007,09,23,14,14,14.50
2007,09,23,14,15,14.50
2007,09,23,14,16,14.50
2007,09,23,14,17,14.50
2007,09,23,14,18,14.50
2007,09,23,14,19,14.50
2007,09,23,14,20,14.60
2007,09,23,14,21,14.60
2007,09,23,14,22,14.70
2007,09,23,14,23,14.90
2007,09,23,14,24,15.00
2007,09,23,14,25,15.00
2007,09,23,14,26,15.00
2007,09,23,14,27,15.00
2007,09,23,14,28,15.00
2007,09,23,14,29,15.00
2007,09,23,14,30,15.00
2007,09,23,14,31,15.00
2007,09,23,14,32,15.00
2007,09,23,14,33,15.00
2007,09,23,14,34,15.00
2007,09,23,14,35,15.00
2007,09,23,14,36,15.00
2007,09,23,14,37,15.00
2007,09,23,14,38,15.20
2007,09,23,14,39,15.20
2007,09,23,14,40,15.30
2007,09,23,14,41,15.30
2007,09,23,14,42,15.40
2007,09,23,14,43,15.50
2007,09,23,14,44,15.60
2007,09,23,14,45,15.70
2007,09,23,14,46,15.70
2007,09,23,14,47,15.70
2007,09,23,14,48,15.60
2007,09,23,14,49,15.60
2007,09,23,14,50,15.60
2007,09,23,14,51,15.50
2007,09,23,14,52,15.50
2007,09,23,14,53,15.50
2007,09,23,14,54,15.50
2007,09,23,14,55,15.60
2007,09,23,14,56,15.60
2007,09,23,14,57,15.60
2007,09,23,14,58,15.60
2007,09,23,14,59,15.70
2007,09,23,15,00,15.70
2007,09,23,15,01,15.80
2007,09,23,15,02,15.80
2007,09,23,15,03,15.90
2007,09,23,15,04,16.00
2007,09,23,15,05,16.00
2007,09,23,15,06,16.10
2007,09,23,15,07,16.00
2007,09,23,15,08,15.90
2007,09,23,15,09,15.90
2007,09,23,15,10,15.90
2007,09,23,15,11,15.80
2007,09,23,15,12,15.80
2007,09,23,15,13,15.70
2007,09,23,15,14,15.60
2007,09,23,15,15,15.60
2007,09,23,15,16,15.60
2007,09,23,15,17,15.60
2007,09,23,15,18,15.60
2007,09,23,15,19,15.60
2007,09,23,15,20,15.50
2007,09,23,15,21,15.50
2007,09,23,15,22,15.50
2007,09,23,15,23,15.50
2007,09,23,15,24,15.50
2007,09,23,15,25,15.50
2007,09,23,15,26,15.50
2007,09,23,15,27,15.40
2007,09,23,15,28,15.50
2007,09,23,15,29,15.50
2007,09,23,15,30,15.50
2007,09,23,15,31,15.50
2007,09,23,15,32,15.40
2007,09,23,15,33,15.30
2007,09,23,15,34,15.30
2007,09,23,15,35,15.30
2007,09,23,15,36,15.30
2007,09,23,15,37,15.30
2007,09,23,15,38,15.10
2007,09,23,15,39,15.00
2007,09,23,15,40,15.00
2007,09,23,15,41,15.00
2007,09,23,15,42,15.00
2007,09,23,15,43,15.00
2007,09,23,15,44,15.00
2007,09,23,15,45,15.00
2007,09,23,15,46,15.00
2007,09,23,15,47,14.90
2007,09,23,15,48,14.80
2007,09,23,15,49,14.70
2007,09,23,15,50,14.60
2007,09,23,15,51,14.50
2007,09,23,15,52,14.50
2007,09,23,15,53,14.50
2007,09,23,15,54,14.50
2007,09,23,15,55,14.60
2007,09,23,15,56,14.60
2007,09,23,15,57,14.60
2007,09,23,15,58,14.50
2007,09,23,15,59,14.40
2007,09,23,16,00,14.40
2007,09,23,16,01,14.30
2007,09,23,16,02,14.30
2007,09,23,16,03,14.30
2007,09,23,16,04,14.30
2007,09,23,16,05,14.20
2007,09,23,16,06,14.20
2007,09,23,16,07,14.20
2007,09,23,16,08,14.20
2007,09,23,16,09,14.20
2007,09,23,16,10,14.20
2007,09,23,16,11,14.20
2007,09,23,16,12,14.20
2007,09,23,16,13,14.20
2007,09,23,16,14,14.10
2007,09,23,16,15,14.10
2007,09,23,16,16,14.10
2007,09,23,16,17,14.00
2007,09,23,16,18,13.90
2007,09,23,16,19,13.90
2007,09,23,16,20,13.80
2007,09,23,16,21,13.80
2007,09,23,16,22,13.80
2007,09,23,16,23,13.80
2007,09,23,16,24,13.80
2007,09,23,16,25,13.80
2007,09,23,16,26,13.90
2007,09,23,16,27,13.90
2007,09,23,16,28,13.90
2007,09,23,16,29,13.90
2007,09,23,16,30,13.90
2007,09,23,16,31,13.90
2007,09,23,16,32,13.90
2007,09,23,16,33,13.90
2007,09,23,16,34,13.90
2007,09,23,16,35,13.90
2007,09,23,16,36,13.90
2007,09,23,16,37,13.90
2007,09,23,16,38,13.90
2007,09,23,16,39,13.90
2007,09,23,16,40,13.90
2007,09,23,16,41,13.90
2007,09,23,16,42,13.90
2007,09,23,16,43,13.90
2007,09,23,16,44,13.90
2007,09,23,16,45,13.90
2007,09,23,16,46,13.90
2007,09,23,16,47,13.80
2007,09,23,16,48,13.80
2007,09,23,16,49,13.80
2007,09,23,16,50,13.80
2007,09,23,16,51,13.80
2007,09,23,16,52,13.80
2007,09,23,16,53,13.70
2007,09,23,16,54,13.70
2007,09,23,16,55,13.70
2007,09,23,16,56,13.70
2007,09,23,16,57,13.60
2007,09,23,16,58,13.60
2007,09,23,16,59,13.60
2007,09,23,17,00,13.60
2007,09,23,17,01,13.60
2007,09,23,17,02,13.50
2007,09,23,17,03,13.50
2007,09,23,17,04,13.50
2007,09,23,17,05,13.50
2007,09,23,17,06,13.50
2007,09,23,17,07,13.50
2007,09,23,17,08,13.50
2007,09,23,17,09,13.50
2007,09,23,17,10,13.50
2007,09,23,17,11,13.40
2007,09,23,17,12,13.40
2007,09,23,17,13,13.40
2007,09,23,17,14,13.40
2007,09,23,17,15,13.40
2007,09,23,17,16,13.30
2007,09,23,17,17,13.30
2007,09,23,17,18,13.30
2007,09,23,17,19,13.30
2007,09,23,17,20,13.30
2007,09,23,17,21,13.30
2007,09,23,17,22,13.30
2007,09,23,17,23,13.30
2007,09,23,17,24,13.30
2007,09,23,17,25,13.30
2007,09,23,17,26,13.30
2007,09,23,17,27,13.20
2007,09,23,17,28,13.20
2007,09,23,17,29,13.20
2007,09,23,17,30,13.20
2007,09,23,17,31,13.20
2007,09,23,17,32,13.10
2007,09,23,17,33,13.10
2007,09,23,17,34,13.10
2007,09,23,17,35,13.10
2007,09,23,17,36,13.10
2007,09,23,17,37,13.10
2007,09,23,17,38,13.10
2007,09,23,17,39,13.10
2007,09,23,17,40,13.10
2007,09,23,17,41,13.00
2007,09,23,17,42,13.00
2007,09,23,17,43,13.00